Location: Kaarina
(60.4167°N, 22.4167°E)
Time: 00:06:22
(UTC+03:00)

Cosmos 1842 - Pass Details

Date: 24 August 2019
Orbit: 523 x 537 km, 82.5° (Epoch: 14 September)

Event Time Altitude Azimuth Distance (km) Brightness Sun altitude
Rises 23:15:36 0° 345° (NNW) 2,687 8.3 -13.6°
Reaches altitude 10° 23:17:46 10° 344° (NNW) 1,794 7.2 -13.7°
Maximum altitude 23:21:42 79° 259° (WSW) 552 3.3 -14.0°
Enters shadow 23:24:10 22° 174° (S) 1,204 4.5 -14.2°
